User: anonymous   Login
Location: Mentone
(34.5413°N, 85.5351°W)
Time: 12:52:00
(UTC-05:00)
Language:

Transit 2A Rocket - Orbit

View from above orbital plane
View from above orbital plane
View from above satellite
View from above satellite

Ground track
Ground track

The orbit data is extracted from the following two-line orbital elements,

1 00047U 60007C   14304.14088640  .00001186  00000-0  29212-3 0  3479
2 00047 066.6672 251.5225 0229578 005.3555 354.9922 14.41296009838676
Epoch (UTC): 31 October 2014 03:22:52
Eccentricity: 0.0229578
inclination: 66.6672°
perigee height: 590 km
apogee height: 918 km
right ascension of ascending node: 251.5225°
argument of perigee: 5.3555°
revolutions per day: 14.41296009
mean anomaly at epoch: 354.9922°
orbit number at epoch: 83867

The dashed part of the orbit path shows where the satellite is in the earth's shadow,  

DLR